weather.gov     
National Weather Service

Regional Weather Roundup
NWS Homepage
This page is being discontinued on March 12, 2014.
The same data is available at this site. Please update your bookmarks.
Thank you, and we apologize for the inconvenience.
Please send an email to SR-SRH.Webmaster@noaa.gov with any concerns.


Current Version
Previous Version:    01  02  03  04  05  06  07  08  09  10  11  12  13  14  15  16  17  18  19  20  21  22  23  24  25  26  27  28  29  30  
   31  32  33  34  35  36  37  38  39  40  41  42  43  44  45  46  47  48  49  50  51  52  53  54  55  56  57  58  59  60  
[Printable]
373
ASUS46 KLOX 221112
RWRCA

SOUTHERN CALIFORNIA WEATHER ROUNDUP
NATIONAL WEATHER SERVICE OXNARD CALIFORNIA
400 AM PDT TUE JUL 22 2014

NOTE: "FAIR" INDICATES FEW OR NO CLOUDS BELOW 12,000 FEET WITH NO
SIGNIFICANT WEATHER AND/OR OBSTRUCTIONS TO VISIBILITY.

  -  STATIONS PRECEEDED BY AN ASTERISK (*) ARE NOT NWS OR FAA
     STATIONS AND ARE NOT SUBJECT TO NWS AND FAA QUALITY CONTROL.

CAZ041-042-087-221200-
LA AND ORANGE COUNTY COASTAL AREAS


CITY           SKY/WX    TMP DP  RH WIND       PRES   REMARKS
L.A. DOWNTOWN  CLEAR     66  61  84 CALM      30.02S
L.A. AIRPORT   PTCLDY    67  62  84 W5        30.03R
LONG BEACH     CLEAR     66  62  87 CALM      30.02S

CITY           SKY/WX    TMP DP  RH WIND       PRES   REMARKS
AVALON           N/A     61 N/A N/A S3          N/A
FULLERTON      CLEAR     67  61  81 CALM      30.02S
*GETTY CENTER    N/A     63  59  88 NE3         N/A
HAWTHORNE      PTCLDY    66  63  88 SW5       30.03R
*LEO CARRILLO    N/A     62  55  77 N7          N/A
*LOS ALAMITOS  FAIR      63  60  90 CALM      30.02F
*REDONDO BEACH   N/A     65  62  89 SW3       30.02S
SANTA ANA      CLEAR     68  62  81 CALM      30.02S
STA MONICA APT PTCLDY    67  61  81 CALM      30.03R
*UCLA            N/A     63  59  88 N5        30.00S

$$

CAZ547-548-048-221200-
LA COUNTY VALLEYS AND INLAND EMPIRE


CITY           SKY/WX    TMP DP  RH WIND       PRES   REMARKS
BURBANK        PTCLDY    66  59  78 E3        30.03R
VAN NUYS       PTCLDY    67  59  75 CALM      30.03R

CITY           SKY/WX    TMP DP  RH WIND       PRES   REMARKS
CORONA AIRPORT SUNNY     61  58  90 MISG      30.04S
CHINO          CLEAR     63  59  87 CALM      30.04S
MARCH AFB      CLEAR     61  56  85 W5        30.05S
*NORTHRIDGE      N/A     64  57  77 CALM        N/A
ONTARIO        PTCLDY    66  59  78 CALM      30.03S
*PASADENA        N/A     66  61  82 CALM        N/A
RIVERSIDE      CLEAR     66  59  78 CALM      30.04R
SAN BERNARDINO NOT AVBL
*SAN GABRIEL     N/A     66  60  80 CALM      29.99F
*SAN RAFAEL HI   N/A     65  62  89 SW2         N/A
*SAUGUS          N/A     63  56  77 CALM        N/A
*WHITEMAN AP   NOT AVBL
*WOODLAND HILL   N/A     63  55  77 S1          N/A

$$

CAZ054-055-221200-
LA AND SAN BERNARDINO COUNTY MOUNTAINS


CITY           SKY/WX    TMP DP  RH WIND       PRES   REMARKS
*BIG BEAR AIRP SUNNY     43  30  61 CALM      30.33S
MT WILSON NWS    N/A     61  34  36 SW6         N/A
SANDBERG       PTCLDY    67  49  52 NW7       30.19S

$$

CAZ028-029-059-060-099-221200-
ANTELOPE VALLEY AND SURROUNDING AREAS


CITY           SKY/WX    TMP DP  RH WIND       PRES   REMARKS
LANCASTER      CLEAR     71  51  49 SW12      30.05S
PALMDALE       CLEAR     72  47  40 SW8       30.07S
*POPPY PARK      N/A     69  51  53 W5G17       N/A

CITY           SKY/WX    TMP DP  RH WIND       PRES   REMARKS
29 PALMS       CLEAR     77  42  28 W9        30.07S
BARSTOW/DAGGET CLEAR     75  44  33 W10       30.02R
BISHOP         MOCLDY    70  46  42 CALM      30.12R
CHINA LAKE     PTCLDY    72  50  45 SW7       30.02R
EDWARDS AFB    CLEAR     68  48  49 SW10      30.03S
MOJAVE         FAIR      73  52  46 SW5       30.07R
NEEDLES        CLEAR     86  33  15 SW5       29.90S
VICTORVILLE    CLEAR     64  39  39 S6        30.09S

$$

CAZ039-040-221200-
VENTURA AND SANTA BARBARA COUNTY COAST


CITY           SKY/WX    TMP DP  RH WIND       PRES   REMARKS
CAMARILLO      PTCLDY    63  58  83 NE5       30.02S
NWS OXNARD       N/A     62  58  85 CALM      30.03R
OXNARD AIRPORT PTCLDY    63  59  87 E3        30.02S
*POINT MUGU    PTCLDY   N/A N/A N/A E3        30.03R
SBA APT/GOLETA CLEAR     61  57  87 W3        30.00F
*VENTURA         N/A     62  58  86 CALM      30.05S

$$

CAZ044-045-221200-
VENTURA COUNTY VALLEYS


CITY           SKY/WX    TMP DP  RH WIND       PRES   REMARKS
*SIMI VALLEY     N/A     59  56  88 CALM      29.99R
*OJAI            N/A     57  54  89 CALM      29.97R
*FILLMORE        N/A     60  55  85 CALM      29.93S

$$

CAZ053-221200-
VENTURA COUNTY MOUNTAINS


CITY           SKY/WX    TMP DP  RH WIND       PRES   REMARKS
*LOCKWOOD VLY    N/A     50  41  71 MISG        N/A
*ROSE VALLEY     N/A     50  45  81 MISG        N/A

$$

CAZ034-035-036-221200-
CENTRAL COAST AND SANTA YNEZ VALLEY


CITY           SKY/WX    TMP DP  RH WIND       PRES   REMARKS
SAN LUIS OBISP PTCLDY    61  59  93 CALM      30.05S
SANTA MARIA    PTCLDY    62  58  86 CALM      30.06S

CITY           SKY/WX    TMP DP  RH WIND       PRES   REMARKS
*CAMBRIA         N/A     57  55  94 CALM      29.94S
*LOMPOC          N/A     57  52  82 CALM      30.06S
*PISMO BEACH     N/A     62  59  89 CALM      30.05S

$$

CAZ037-038-051-221200-
SAN LUIS OBISPO COUNTY INTERIOR AND CUYAMA VALLEY


CITY           SKY/WX    TMP DP  RH WIND       PRES   REMARKS
*CUYAMA          N/A     62  54  75 N1        29.96S
PASO ROBLES    MOCLDY    62  55  77 SW3       30.05S

$$

CAZ032-033-061-221200-
SOUTHERN DESERTS


CITY           SKY/WX    TMP DP  RH WIND       PRES   REMARKS
BLYTHE         CLEAR     78  33  19 NW7       29.86F
IMPERIAL       CLEAR     78  45  30 SW5       29.83F
PALM SPRINGS   CLEAR     79  58  48 S3        29.91S
THERMAL        CLEAR     84  53  34 NW12      29.84S

$$

ELSEWHERE ACROSS THE WESTERN UNITED STATES AND MEXICO


CITY           SKY/WX    TMP DP  RH WIND       PRES   REMARKS
DENVER, CO     PTCLDY    67  44  43 SW8       30.22R
GRAND CANYON,  CLEAR     47  34  60 CALM      30.37S
HONOLULU, HI   PTCLDY    81  73  78 N5        29.97F
KAHULUI, MAUI  PTCLDY    77  73  88 S3        29.98F
LAKE TAHOE, CA MOCLDY    50  45  83 S3        30.28S
LAS VEGAS, NV  CLEAR     84  33  16 S7        29.96R
MAMMOTH LAKES, FAIR      52  41  66 NW3       30.34S
MEXICO CITY, M CLEAR     59  50  72 W7        30.37F
PHOENIX, AZ    CLEAR     91  50  24 SW7       29.89R
PORTLAND, OR   LGT RAIN  65  57  75 S9        30.01S
RENO, NV       PTCLDY    66  52  60 W7        30.19S
SALT LAKE CITY PTCLDY    67  47  48 CALM      30.16R
SAN DIEGO, CA  CLOUDY    70  63  78 N7        30.03S
SAN FRANCISCO, PTCLDY    65  57  75 CALM      30.04S
SAN JOSE, CA   CLOUDY    63  57  81 CALM      30.04S
SEATTLE, WA    MOCLDY    59  53  80 CALM      30.02S
TIJUANA, MEX   MOCLDY    64  59  82 NW6       30.05S

$$

STATION/POSITION TIME  TEMP    WIND        PRES    VSBY  WAVE
                       AIR SEA DIR/SP/G                  HT/PER
                 (UTC) (F)     (DEG/KT/KT) (MB)    (MI)  (FT/S)
POINT ARGUELLO B NOT AVBL
WEST SANTA BARBA 1100   65 67  320/ 16/ 19 1016.4S         3/12
POINT CONCEPTION NOT AVBL
EAST SANTA BARBA 1100   67 67  280/  8/ 10 1016.2F
SANTA MONICA BAY 1100   68 70  340/  6/  6 1016.5S         3/ 4




U.S. Dept. of Commerce
NOAA National Weather Service
1325 East West Highway
Silver Spring, MD 20910
E-mail: w-nws.webmaster@noaa.gov
Page last modified: May 16, 2007
NATIONAL WEATHER SERVICE: for Safety, for Work, for Fun - FOR LIFE